Preview of NWS' New Version of Forecast
This preview is not operational and should not be used for support decisions.
Latest weather observations around

Kenai, Kenai Municipal Airport (PAEN)

Using English Units (Switch to International System of Units)
Date/ Time (AKDT) Wind (mph) Vis. (mi) Weather Sky Cond. Temp (°F) Rel. Humidity Wind Chill (°F) Heat Index (°F) Pressure Precip. (in)
Air Dwpt 6 hour Altimeter (inHg) Sea level (inHg) 1 hr 3 hr 6 hr
Max Min
Apr 26 05:53 Calm 10 Clear CLR 26 19     74%     30.21 30.21      
Apr 26 04:53 Calm 10 Clear CLR 26 16     65%     30.19 30.2      
Apr 26 03:53 Calm 10 Clear CLR 29 18     63%     30.19 30.19      
Apr 26 02:53 N 3 10 Clear CLR 32 22     66% 29   30.18 30.19      
Apr 26 01:53 Calm 10 Clear CLR 34 19     54%     30.17 30.17      
Apr 26 00:53 N 3 10 Clear CLR 36 17     46% 33   30.16 30.16      
Apr 25 23:53 NNW 9 10 Clear CLR 41 18     39% 35   30.15 30.16      
Apr 25 22:53 N 8 10 Clear CLR 41 19     41% 36   30.14 30.15      
Apr 25 21:53 NNW 9 10 Mostly Clear FEW120 44 18     35% 39   30.13 30.13      
Apr 25 20:53 NNW 9 10 Mostly Clear FEW120 46 19     34% 41   30.11 30.11      
Apr 25 19:53 N 16 10 Clear CLR 47 18     31% 40   30.1 30.1      
Apr 25 18:53 N 14 10 Clear   49 18     29% 44   30.09 30.09      
Apr 25 17:53 N 14 10 Clear CLR 49 19     30% 44   30.09 30.09      
Apr 25 16:53 NNE 14 10 Mostly Clear FEW040 FEW120 48 16     27% 42   30.08 30.09      
Apr 25 15:53 NNE 20 10 Partly Cloudy and Windy SCT040 49        % 42   30.08 30.09      
Apr 25 14:53 N 15 10 Clear CLR 47 19     33% 41   30.08 30.09      
Apr 25 13:53 NNE 14 10 Clear CLR 48 18     30% 42   30.08 30.09      
Apr 25 12:53 NNE 18 10 Partly Cloudy SCT090 45 20     37% 37   30.08 30.08      
Apr 25 11:53 NNE 21 10 Partly Cloudy and Windy SCT075 42 19     39% 33   30.08 30.08      
Apr 25 10:53 N 17 10 Clear CLR 40 19     43% 31   30.07 30.08      
Apr 25 09:53 NNE 20 10 Cloudy and Windy OVC085 38 21     50% 28   30.07 30.07      
Apr 25 08:53 N 17 10 Cloudy SCT090 OVC110 38 21     50% 29   30.06 30.07      
Apr 25 07:53 N 15 10 Cloudy BKN090 OVC110 37 22     54% 28   30.06 30.06      
Apr 25 06:53 NNE 15 10 Cloudy OVC100 36 23     59% 27   30.05 30.05      
Apr 25 05:53 NNE 17 10 Cloudy OVC110 36 25     64% 26   30.04 30.05      
Apr 25 04:53 NNE 10 10 Clear CLR 35 23     61% 27   30.04 30.05      
Apr 25 03:53 NNE 11 10 Partly Cloudy SCT090 35 23     61% 27   30.04 30.05      
Apr 25 02:53 NNE 16 10 Mostly Cloudy BKN095 36 22     56% 26   30.04 30.04      
Apr 25 01:53 NNE 18 10 Clear CLR 37 25     61% 27   30.04 30.04      
Apr 25 00:53 N 17 10 Mostly Clear FEW120 38 26     62% 29   30.03 30.03      
Apr 24 23:53 N 14 10 Mostly Clear FEW110 37 27     67% 28   30.03 30.03      
Apr 24 22:53 NNE 16 10 Clear CLR 37 26     64% 28   30.02 30.02      
Apr 24 21:53 NNE 15 10 Mostly Clear FEW070 39 21     48% 31   30.01 30.02      
Apr 24 20:53 NNE 18 10 Clear CLR 39 22     50% 30   30.01 30.02      
Apr 24 19:53 NNE 14 10 Clear CLR 40 22     48% 32   30.01 30.02      
Apr 24 18:53 NNE 15 10 Cloudy SCT090 OVC110 40 22     48% 32   30.02 30.03      
Apr 24 17:53 NNE 15 10 Cloudy OVC095 41 21     45% 33   30.03 30.03      
Apr 24 16:53 ENE 11 10 Cloudy BKN100 OVC120 43 19     38% 37   30.03 30.04      
Apr 24 15:53 NE 11 10 Mostly Cloudy BKN060 44 17     33% 38   30.03 30.04      
Apr 24 14:53 NE 13 10 Mostly Cloudy BKN060 43 18     36% 36   30.04 30.04      
Apr 24 13:53 E 13 10 Mostly Cloudy BKN060 43 16     33% 36   30.04 30.05      
Apr 24 12:53 E 14 10 Mostly Clear FEW055 41 16     36% 33   30.05 30.06      
Apr 24 11:53 NNE 14 10 Partly Cloudy SCT050 40 17     39% 32   30.06 30.06      
Apr 24 10:53 ENE 15 10 Partly Cloudy SCT046 38 17     42% 29   30.05 30.06      
Apr 24 09:53 NNE 14 10 Clear CLR 36 21     54% 27   30.05 30.06      
Apr 24 08:53 ENE 5 10 Mostly Clear FEW065 33 22     63% 29   30.06 30.06      
Apr 24 07:53 Calm 10 Partly Cloudy SCT065 28 23     81%     30.05 30.05      
Apr 24 06:53 Calm 10 Clear CLR 25 21     85%     30.04 30.04      
Apr 24 05:53 Calm 10 Clear CLR 26 20     77%     30.03 30.03      
Apr 24 04:53 E 6 10 Mostly Clear FEW075 27 20     75% 20   30.03 30.03      
Apr 24 03:53 ESE 6 10 Cloudy OVC046 30 21     69% 24   30.02 30.03      
Apr 24 02:53 SSE 5 10 Cloudy OVC050 30 17     58% 25   30.01 30.02      
Apr 24 01:53 SSE 6 10 Cloudy OVC055 30 18     60% 24   30 30      
Apr 24 00:53 S 7 10 Cloudy OVC055 31 20     63% 24   29.98 29.98      
Apr 23 23:53 SSW 7 10 Cloudy OVC060 31 18     58% 24   29.97 29.97      
Apr 23 22:53 WSW 5 10 Cloudy OVC060 31 18     58% 26   29.95 29.96      
Apr 23 21:53 SW 8 10 Mostly Cloudy BKN060 32 18     56% 25   29.93 29.94      
Apr 23 20:53 SW 11 10 Cloudy OVC065 33 20     58% 24   29.92 29.92      
Apr 23 19:53 SW 11 10 Cloudy OVC070 34 19     54% 26   29.91 29.91      
Apr 23 18:53 WSW 7 10 Clear CLR 35 20     54% 29   29.9 29.91      
Apr 23 17:53 WSW 11 10 Clear CLR 36 20     52% 28   29.89 29.89      
Apr 23 16:53 SW 15 10 Clear CLR 36 21     54% 27   29.87 29.88      
Apr 23 15:53 SW 10 7 Partly Cloudy SCT020 36 21     54% 29   29.86 29.86 0   0
Apr 23 15:10 W 11 7 Cloudy FEW017 BKN040 OVC060 35 28     75% 27   29.85   0    
Apr 23 15:00 WSW 8 3 Light Snow BKN022 BKN030 OVC060 34 29     82% 27   29.85   0    
Apr 23 14:53 SW 11 2 Light Snow BKN022 BKN027 OVC047 33 28     82% 24   29.85 29.85 0    
Apr 23 14:48 SSW 14 2 Light Snow FEW020 BKN027 OVC043 34 28     80% 24   29.85   0    
Apr 23 14:41 SW 14 2 Light Snow FEW022 BKN030 OVC038 34 27     75% 25   29.84   0    
Apr 23 13:53 WSW 11 10 Cloudy SCT030 OVC037 36 24     62% 28   29.83 29.83      
Apr 23 12:53 SW 9 10 Cloudy OVC060 37 22     54% 30   29.81 29.81      
Apr 23 11:53 SE 5 10 Mostly Cloudy BKN047 36 19     50% 32   29.79 29.8      
Apr 23 10:53 Calm 10 Mostly Clear FEW045 35 19     52%     29.77 29.78      
Apr 23 09:53 SSE 7 10 Clear CLR 34 19     54% 28   29.75 29.76      
Apr 23 08:53 SSE 8 10 Mostly Clear FEW060 32 19     58% 25   29.74 29.74      
Apr 23 07:53 E 5 10 Mostly Clear FEW055 28 18     65% 23   29.72 29.72      
Apr 23 06:53 ENE 6 10 Partly Cloudy SCT060 24 17     74% 17   29.7 29.71      
Apr 23 05:53 SSE 8 10 Mostly Clear FEW060 27 17     66% 19   29.68 29.69      
Apr 23 04:53 SSE 9 10 Mostly Cloudy BKN055 28 17     63% 19   29.67 29.67      
May 14 13:53 SSW 14 10 Partly Cloudy SCT090 49 37     63% 44   29.88 29.89      
May 14 02:53 S 8 10 Cloudy OVC110 42 33     70% 37   29.77 29.78      
May 13 11:53 N 15 10 Mostly Clear FEW030 48 34     58% 42   29.88 29.89      
May 13 08:53 NNE 13 10 Clear CLR 40 37     89% 32   29.98 29.99      
May 13 01:12 N 3 10 Clear CLR 36 36     100% 33   30.14        
May 11 19:53 SSE 15 10 Mostly Cloudy BKN085 49 32     52% 43   29.94 29.95      
May 11 16:53 S 17 10 Mostly Cloudy FEW050 SCT080 BKN095 51 31     46%     29.9 29.9      
May 11 14:53 SW 10 10 Cloudy BKN050 OVC070 46 38     73% 41   29.87 29.88 0    
Jun 11 10:53 SE 8 10 Cloudy OVC080 53 40     61%     29.79 29.8      
Jun 11 09:53 W 5 10 Cloudy OVC080 51 43     74%     29.79 29.79      
Jun 10 08:53 Calm 3 Fog/Mist SCT002 49 49     100%     29.78 29.79      
Notice The following observation data may not be complete
Jun 09 13:21   10 Light Rain FEW004 OVC095          %         0    
Jun 06 09:53 NNE 15 10 Clear CLR 52 44     74%     29.8 29.8      
Jun 05 17:53 N 18 10 Clear CLR 55 45     69%     29.78 29.78      
Jun 05 12:53 Calm 10 Light Rain OVC055 47 44     90%     29.82 29.83 0 0